Wetterstation Oberdrees
Wetterdaten: aktuell Donnerstag, 25.04.2019 02:40
Datum Zeit Temp. A. Feuchte A. Luftdruck Regen Wind Richtung Richtung Taupunkt Windchill Windben
25.04.2019 02:40 8,2 C 89 % 1005,9 hPa 0,0 l/m 2,6 km/h (1 Bft) O-SO 111 6,5 C 8,2 C 4,8 km/h (1 Bft)
25.04.2019 02:35 8,3 C 89 % 1006,0 hPa 0,0 l/m 3,2 km/h (1 Bft) O-SO 111 6,6 C 8,3 C 4,8 km/h (1 Bft)
25.04.2019 02:30 8,3 C 89 % 1005,9 hPa 0,0 l/m 1,6 km/h (1 Bft) O 96 6,6 C 8,3 C 4,8 km/h (1 Bft)
25.04.2019 02:25 8,3 C 89 % 1005,8 hPa 0,0 l/m 2,2 km/h (1 Bft) O-SO 115 6,6 C 8,3 C 4,8 km/h (1 Bft)
25.04.2019 02:20 8,3 C 89 % 1005,9 hPa 0,0 l/m 1,2 km/h (1 Bft) O-NO 61 6,6 C 8,3 C 3,2 km/h (1 Bft)
25.04.2019 02:15 8,3 C 89 % 1006,0 hPa 0,0 l/m 1,3 km/h (1 Bft) O-SO 109 6,6 C 8,3 C 3,2 km/h (1 Bft)
25.04.2019 02:10 8,4 C 89 % 1005,8 hPa 0,0 l/m 1,3 km/h (1 Bft) O-NO 58 6,7 C 8,4 C 6,4 km/h (2 Bft)
25.04.2019 02:05 8,4 C 89 % 1006,0 hPa 0,0 l/m 1,4 km/h (1 Bft) O 80 6,7 C 8,4 C 4,8 km/h (1 Bft)
25.04.2019 02:00 8,6 C 89 % 1006,0 hPa 0,0 l/m 1,2 km/h (1 Bft) O-NO 77 6,9 C 8,6 C 6,4 km/h (2 Bft)
25.04.2019 01:55 8,7 C 88 % 1006,2 hPa 0,0 l/m 0,7 km/h (0 Bft) SO 131 6,8 C 8,7 C 3,2 km/h (1 Bft)
25.04.2019 01:50 8,8 C 88 % 1006,1 hPa 0,0 l/m 1,6 km/h (1 Bft) O 89 6,9 C 8,8 C 4,8 km/h (1 Bft)
25.04.2019 01:45 9,0 C 88 % 1006,0 hPa 0,0 l/m 2,0 km/h (1 Bft) O-NO 64 7,1 C 9,0 C 6,4 km/h (2 Bft)
25.04.2019 01:40 9,2 C 87 % 1006,1 hPa 0,0 l/m 1,7 km/h (1 Bft) O 98 7,2 C 9,2 C 3,2 km/h (1 Bft)
25.04.2019 01:35 9,4 C 85 % 1006,3 hPa 0,0 l/m 0,8 km/h (0 Bft) S-SO 157 7,0 C 9,4 C 3,2 km/h (1 Bft)
25.04.2019 01:30 9,5 C 85 % 1006,3 hPa 0,0 l/m 1,1 km/h (1 Bft) S-SO 157 7,1 C 9,5 C 4,8 km/h (1 Bft)
25.04.2019 01:25 9,6 C 85 % 1006,4 hPa 0,0 l/m 2,7 km/h (1 Bft) S-SO 160 7,2 C 9,6 C 9,7 km/h (2 Bft)
25.04.2019 01:20 9,6 C 84 % 1006,2 hPa 0,0 l/m 2,0 km/h (1 Bft) S 171 7,0 C 9,6 C 4,8 km/h (1 Bft)
25.04.2019 01:15 9,7 C 85 % 1006,4 hPa 0,0 l/m 1,4 km/h (1 Bft) S-SO 159 7,3 C 9,7 C 6,4 km/h (2 Bft)
25.04.2019 01:10 9,7 C 85 % 1006,4 hPa 0,0 l/m 2,8 km/h (1 Bft) S 186 7,3 C 9,7 C 11,3 km/h (2 Bft)
25.04.2019 01:05 9,6 C 85 % 1006,4 hPa 0,0 l/m 3,3 km/h (1 Bft) SW 223 7,2 C 9,6 C 9,7 km/h (2 Bft)
25.04.2019 01:00 9,6 C 86 % 1006,4 hPa 0,0 l/m 3,0 km/h (1 Bft) S-SW 196 7,4 C 9,6 C 6,4 km/h (2 Bft)
25.04.2019 00:55 9,5 C 87 % 1006,4 hPa 0,0 l/m 2,4 km/h (1 Bft) S 190 7,4 C 9,5 C 8,0 km/h (2 Bft)
25.04.2019 00:50 9,4 C 87 % 1006,3 hPa 0,0 l/m 1,2 km/h (1 Bft) O-SO 102 7,3 C 9,4 C 4,8 km/h (1 Bft)
25.04.2019 00:45 9,4 C 88 % 1006,2 hPa 0,0 l/m 2,0 km/h (1 Bft) O 101 7,5 C 9,4 C 9,7 km/h (2 Bft)
25.04.2019 00:40 9,3 C 88 % 1006,2 hPa 0,0 l/m 2,0 km/h (1 Bft) O 98 7,4 C 9,3 C 4,8 km/h (1 Bft)
25.04.2019 00:35 9,3 C 88 % 1006,3 hPa 0,0 l/m 1,1 km/h (1 Bft) O-SO 107 7,4 C 9,3 C 4,8 km/h (1 Bft)
25.04.2019 00:30 9,3 C 88 % 1006,4 hPa 0,0 l/m 1,6 km/h (1 Bft) O-SO 109 7,4 C 9,3 C 4,8 km/h (1 Bft)
25.04.2019 00:25 9,3 C 88 % 1006,4 hPa 0,0 l/m 1,4 km/h (1 Bft) O-SO 106 7,4 C 9,3 C 4,8 km/h (1 Bft)
25.04.2019 00:20 9,3 C 88 % 1006,4 hPa 0,0 l/m 2,0 km/h (1 Bft) SW 222 7,4 C 9,3 C 4,8 km/h (1 Bft)
25.04.2019 00:15 9,2 C 89 % 1006,4 hPa 0,0 l/m 2,9 km/h (1 Bft) SW 235 7,5 C 9,2 C 6,4 km/h (2 Bft)
25.04.2019 00:10 9,2 C 89 % 1006,4 hPa 0,0 l/m 2,9 km/h (1 Bft) S 180 7,5 C 9,2 C 8,0 km/h (2 Bft)
25.04.2019 00:05 9,1 C 89 % 1006,5 hPa 0,2 l/m 1,3 km/h (1 Bft) O 80 7,4 C 9,1 C 4,8 km/h (1 Bft)
25.04.2019 00:00 9,1 C 90 % 1006,6 hPa 0,0 l/m 1,7 km/h (1 Bft) O 83 7,5 C 9,1 C 9,7 km/h (2 Bft)
24.04.2019 23:55 9,1 C 90 % 1006,7 hPa 0,0 l/m 2,7 km/h (1 Bft) O-SO 115 7,5 C 9,1 C 9,7 km/h (2 Bft)
24.04.2019 23:50 9,1 C 90 % 1006,7 hPa 0,0 l/m 2,0 km/h (1 Bft) O 97 7,5 C 9,1 C 6,4 km/h (2 Bft)
24.04.2019 23:45 9,0 C 90 % 1006,6 hPa 0,0 l/m 1,9 km/h (1 Bft) O-SO 102 7,4 C 9,0 C 6,4 km/h (2 Bft)
24.04.2019 23:40 9,0 C 89 % 1006,6 hPa 0,0 l/m 1,9 km/h (1 Bft) O-SO 106 7,3 C 9,0 C 9,7 km/h (2 Bft)
24.04.2019 23:35 9,0 C 90 % 1006,7 hPa 0,0 l/m 2,5 km/h (1 Bft) O-SO 120 7,4 C 9,0 C 11,3 km/h (2 Bft)
24.04.2019 23:30 9,1 C 90 % 1006,6 hPa 0,0 l/m 1,5 km/h (1 Bft) O-SO 117 7,5 C 9,1 C 3,2 km/h (1 Bft)
24.04.2019 23:25 9,1 C 90 % 1006,6 hPa 0,0 l/m 1,7 km/h (1 Bft) O-SO 114 7,5 C 9,1 C 4,8 km/h (1 Bft)
24.04.2019 23:20 9,2 C 90 % 1006,6 hPa 0,0 l/m 1,8 km/h (1 Bft) O-SO 107 7,6 C 9,2 C 6,4 km/h (2 Bft)
24.04.2019 23:15 9,2 C 90 % 1006,6 hPa 0,0 l/m 1,9 km/h (1 Bft) O-SO 111 7,6 C 9,2 C 6,4 km/h (2 Bft)
24.04.2019 23:10 9,3 C 90 % 1006,5 hPa 0,0 l/m 1,3 km/h (1 Bft) O-SO 107 7,7 C 9,3 C 4,8 km/h (1 Bft)
24.04.2019 23:05 9,3 C 90 % 1006,5 hPa 0,0 l/m 1,4 km/h (1 Bft) O 90 7,7 C 9,3 C 3,2 km/h (1 Bft)
24.04.2019 23:00 9,3 C 89 % 1006,3 hPa 0,0 l/m 2,1 km/h (1 Bft) O 84 7,6 C 9,3 C 6,4 km/h (2 Bft)
24.04.2019 22:55 9,3 C 89 % 1006,5 hPa 0,0 l/m 2,4 km/h (1 Bft) O-SO 114 7,6 C 9,3 C 6,4 km/h (2 Bft)
24.04.2019 22:50 9,4 C 89 % 1006,5 hPa 0,0 l/m 3,1 km/h (1 Bft) O 96 7,7 C 9,4 C 9,7 km/h (2 Bft)
24.04.2019 22:45 9,5 C 89 % 1006,6 hPa 0,0 l/m 2,9 km/h (1 Bft) O-SO 104 7,8 C 9,5 C 11,3 km/h (2 Bft)
24.04.2019 22:40 9,5 C 89 % 1006,6 hPa 0,0 l/m 2,8 km/h (1 Bft) SO 130 7,8 C 9,5 C 11,3 km/h (2 Bft)
24.04.2019 22:35 9,6 C 89 % 1006,7 hPa 0,0 l/m 2,9 km/h (1 Bft) SO 129 7,9 C 9,6 C 6,4 km/h (2 Bft)
24.04.2019 22:30 9,6 C 89 % 1006,6 hPa 0,0 l/m 3,1 km/h (1 Bft) O 97 7,9 C 9,6 C 12,9 km/h (3 Bft)
24.04.2019 22:25 9,7 C 89 % 1006,5 hPa 0,0 l/m 4,0 km/h (1 Bft) O-SO 110 8,0 C 9,7 C 9,7 km/h (2 Bft)
24.04.2019 22:20 9,7 C 88 % 1006,2 hPa 0,0 l/m 2,3 km/h (1 Bft) O 95 7,8 C 9,7 C 6,4 km/h (2 Bft)
24.04.2019 22:15 9,8 C 88 % 1006,0 hPa 0,0 l/m 1,3 km/h (1 Bft) O-NO 57 7,9 C 9,8 C 4,8 km/h (1 Bft)
24.04.2019 22:10 9,8 C 88 % 1006,5 hPa 0,0 l/m 1,0 km/h (0 Bft) O-SO 118 7,9 C 9,8 C 4,8 km/h (1 Bft)
24.04.2019 22:05 9,9 C 87 % 1006,7 hPa 0,0 l/m 2,2 km/h (1 Bft) O 96 7,8 C 9,9 C 6,4 km/h (2 Bft)
24.04.2019 22:00 9,9 C 87 % 1006,9 hPa 0,0 l/m 1,7 km/h (1 Bft) NO 50 7,8 C 9,9 C 6,4 km/h (2 Bft)
24.04.2019 21:55 10,1 C 87 % 1006,8 hPa 0,4 l/m 2,2 km/h (1 Bft) O 95 8,0 C 10,1 C 9,7 km/h (2 Bft)
24.04.2019 21:50 10,1 C 86 % 1007,0 hPa 0,4 l/m 1,6 km/h (1 Bft) O-SO 103 7,9 C 10,1 C 4,8 km/h (1 Bft)
24.04.2019 21:45 10,1 C 86 % 1006,9 hPa 0,4 l/m 1,8 km/h (1 Bft) S-SO 150 7,9 C 10,1 C 4,8 km/h (1 Bft)
24.04.2019 21:40 10,1 C 86 % 1006,8 hPa 0,0 l/m 2,0 km/h (1 Bft) S 172 7,9 C 10,1 C 6,4 km/h (2 Bft)
24.04.2019 21:35 10,1 C 85 % 1007,1 hPa 0,0 l/m 2,0 km/h (1 Bft) SW 236 7,7 C 10,1 C 8,0 km/h (2 Bft)
24.04.2019 21:30 10,1 C 85 % 1006,9 hPa 0,2 l/m 3,6 km/h (1 Bft) S-SW 198 7,7 C 10,1 C 9,7 km/h (2 Bft)
24.04.2019 21:25 10,1 C 84 % 1006,3 hPa 0,0 l/m 3,5 km/h (1 Bft) SW 226 7,5 C 10,1 C 11,3 km/h (2 Bft)
24.04.2019 21:20 10,0 C 84 % 1006,0 hPa 0,0 l/m 7,3 km/h (2 Bft) SW 219 7,4 C 9,3 C 20,9 km/h (4 Bft)
24.04.2019 21:15 10,0 C 85 % 1005,9 hPa 0,2 l/m 8,7 km/h (2 Bft) W 265 7,6 C 8,4 C 20,9 km/h (4 Bft)
24.04.2019 21:10 10,0 C 85 % 1005,8 hPa 0,4 l/m 9,9 km/h (2 Bft) W 271 7,6 C 7,7 C 27,4 km/h (5 Bft)
24.04.2019 21:05 10,1 C 84 % 1005,5 hPa 0,6 l/m 11,8 km/h (2 Bft) W-SW 258 7,5 C 6,7 C 27,4 km/h (5 Bft)
24.04.2019 21:00 10,2 C 83 % 1005,6 hPa 0,6 l/m 11,7 km/h (2 Bft) W 259 7,4 C 6,9 C 27,4 km/h (5 Bft)
24.04.2019 20:55 10,4 C 83 % 1005,8 hPa 0,4 l/m 14,3 km/h (3 Bft) W-SW 243 7,6 C 5,9 C 27,4 km/h (5 Bft)
24.04.2019 20:50 10,5 C 82 % 1005,7 hPa 0,4 l/m 11,5 km/h (2 Bft) SW 233 7,6 C 7,3 C 30,6 km/h (5 Bft)
24.04.2019 20:45 10,7 C 80 % 1005,6 hPa 0,2 l/m 12,4 km/h (2 Bft) S-SW 193 7,4 C 7,1 C 35,4 km/h (5 Bft)
24.04.2019 20:40 10,9 C 80 % 1005,2 hPa 0,4 l/m 10,5 km/h (2 Bft) W-SW 242 7,6 C 8,3 C 24,1 km/h (4 Bft)
24.04.2019 20:35 11,2 C 79 % 1005,0 hPa 0,2 l/m 12,3 km/h (2 Bft) S-SW 213 7,7 C 7,8 C 25,7 km/h (4 Bft)
24.04.2019 20:30 11,3 C 77 % 1005,1 hPa 0,0 l/m 9,2 km/h (2 Bft) W-SW 246 7,4 C 9,5 C 22,5 km/h (4 Bft)
24.04.2019 20:25 11,4 C 76 % 1005,2 hPa 0,0 l/m 8,2 km/h (2 Bft) S 188 7,3 C 10,2 C 22,5 km/h (4 Bft)
24.04.2019 20:20 11,6 C 75 % 1004,9 hPa 0,0 l/m 7,9 km/h (2 Bft) W 264 7,3 C 10,6 C 17,7 km/h (3 Bft)
24.04.2019 20:15 11,6 C 74 % 1004,7 hPa 0,0 l/m 11,9 km/h (2 Bft) SW 217 7,1 C 8,4 C 27,4 km/h (5 Bft)
24.04.2019 20:10 11,7 C 75 % 1004,3 hPa 0,0 l/m 13,2 km/h (3 Bft) W-NW 303 7,4 C 7,9 C 30,6 km/h (5 Bft)
24.04.2019 20:05 11,8 C 74 % 1004,5 hPa 0,0 l/m 13,5 km/h (3 Bft) S-SW 195 7,3 C 7,9 C 43,5 km/h (6 Bft)
24.04.2019 20:00 11,8 C 73 % 1004,4 hPa 0,0 l/m 13,6 km/h (3 Bft) W 281 7,1 C 7,9 C 38,6 km/h (6 Bft)
24.04.2019 19:55 11,9 C 75 % 1004,2 hPa 0,0 l/m 13,9 km/h (3 Bft) S-SW 203 7,6 C 7,9 C 25,7 km/h (4 Bft)
24.04.2019 19:50 12,1 C 76 % 1004,2 hPa 0,0 l/m 12,3 km/h (2 Bft) SW 232 8,0 C 8,8 C 22,5 km/h (4 Bft)
24.04.2019 19:45 12,2 C 77 % 1003,8 hPa 0,0 l/m 13,5 km/h (3 Bft) W-SW 238 8,3 C 8,4 C 27,4 km/h (5 Bft)
24.04.2019 19:40 12,3 C 77 % 1003,5 hPa 0,0 l/m 12,7 km/h (3 Bft) SW 234 8,4 C 8,9 C 25,7 km/h (4 Bft)
24.04.2019 19:35 12,5 C 79 % 1003,4 hPa 0,0 l/m 12,7 km/h (3 Bft) W-SW 238 9,0 C 9,1 C 35,4 km/h (5 Bft)
24.04.2019 19:30 12,6 C 80 % 1002,9 hPa 0,0 l/m 12,7 km/h (3 Bft) S-SW 209 9,2 C 9,2 C 27,4 km/h (5 Bft)
24.04.2019 19:25 12,7 C 81 % 1002,6 hPa 0,0 l/m 10,3 km/h (2 Bft) SW 225 9,5 C 10,4 C 20,9 km/h (4 Bft)
24.04.2019 19:20 12,7 C 81 % 1002,5 hPa 0,0 l/m 12,9 km/h (3 Bft) W 265 9,5 C 9,2 C 30,6 km/h (5 Bft)
24.04.2019 19:15 12,8 C 82 % 1002,7 hPa 0,0 l/m 13,7 km/h (3 Bft) W 263 9,8 C 9,0 C 27,4 km/h (5 Bft)
24.04.2019 19:10 13,0 C 81 % 1002,7 hPa 0,2 l/m 11,9 km/h (2 Bft) W 261 9,8 C 10,0 C 24,1 km/h (4 Bft)
24.04.2019 19:05 13,3 C 79 % 1003,1 hPa 0,0 l/m 15,3 km/h (3 Bft) SW 233 9,7 C 9,0 C 35,4 km/h (5 Bft)
24.04.2019 19:00 13,5 C 78 % 1002,6 hPa 0,0 l/m 15,1 km/h (3 Bft) W-SW 246 9,7 C 9,3 C 40,2 km/h (6 Bft)
24.04.2019 18:55 13,8 C 78 % 1002,1 hPa 0,0 l/m 16,5 km/h (3 Bft) W-SW 257 10,0 C 9,2 C 33,8 km/h (5 Bft)
24.04.2019 18:50 14,2 C 78 % 1002,1 hPa 0,2 l/m 16,5 km/h (3 Bft) W-SW 254 10,4 C 9,7 C 35,4 km/h (5 Bft)
24.04.2019 18:45 14,9 C 73 % 1001,8 hPa 0,0 l/m 19,0 km/h (3 Bft) SW 226 10,1 C 9,9 C 40,2 km/h (6 Bft)
24.04.2019 18:40 16,0 C 69 % 1002,0 hPa 0,0 l/m 16,0 km/h (3 Bft) W-SW 254 10,3 C 12,1 C 40,2 km/h (6 Bft)
24.04.2019 18:35 17,7 C 63 % 1002,0 hPa 0,0 l/m 18,4 km/h (3 Bft) S-SW 202 10,6 C 13,6 C 30,6 km/h (5 Bft)
24.04.2019 18:30 20,7 C 53 % 1000,9 hPa 0,0 l/m 12,3 km/h (2 Bft) S-SW 198 10,8 C 18,8 C 38,6 km/h (6 Bft)
24.04.2019 18:25 21,5 C 53 % 1000,0 hPa 0,0 l/m 4,1 km/h (1 Bft) SW 219 11,5 C 21,5 C 8,0 km/h (2 Bft)
24.04.2019 18:20 21,9 C 51 % 999,6 hPa 0,0 l/m 3,0 km/h (1 Bft) SW 225 11,3 C 21,9 C 6,4 km/h (2 Bft)
24.04.2019 18:15 22,3 C 48 % 999,5 hPa 0,0 l/m 2,9 km/h (1 Bft) SW 217 10,8 C 22,3 C 6,4 km/h (2 Bft)
24.04.2019 18:10 22,6 C 46 % 999,5 hPa 0,0 l/m 4,9 km/h (1 Bft) SW 222 10,4 C 22,6 C 12,9 km/h (3 Bft)
24.04.2019 18:05 23,1 C 44 % 999,5 hPa 0,0 l/m 4,3 km/h (1 Bft) W-SW 244 10,2 C 23,1 C 8,0 km/h (2 Bft)
24.04.2019 18:00 23,3 C 43 % 999,3 hPa 0,0 l/m 4,3 km/h (1 Bft) S-SW 208 10,0 C 23,3 C 9,7 km/h (2 Bft)
24.04.2019 17:55 23,7 C 42 % 999,3 hPa 0,0 l/m 4,2 km/h (1 Bft) SW 219 10,0 C 23,7 C 8,0 km/h (2 Bft)
24.04.2019 17:50 23,9 C 40 % 999,4 hPa 0,0 l/m 3,7 km/h (1 Bft) SW 221 9,5 C 23,9 C 6,4 km/h (2 Bft)
24.04.2019 17:45 23,9 C 39 % 999,5 hPa 0,0 l/m 4,0 km/h (1 Bft) SW 215 9,1 C 23,9 C 8,0 km/h (2 Bft)
24.04.2019 17:40 24,0 C 39 % 999,7 hPa 0,0 l/m 4,4 km/h (1 Bft) SW 216 9,2 C 24,0 C 9,7 km/h (2 Bft)
24.04.2019 17:35 24,2 C 39 % 999,8 hPa 0,0 l/m 4,8 km/h (1 Bft) SW 233 9,4 C 24,2 C 11,3 km/h (2 Bft)
24.04.2019 17:30 24,4 C 38 % 999,9 hPa 0,0 l/m 5,0 km/h (1 Bft) W-SW 247 9,2 C 24,4 C 11,3 km/h (2 Bft)
24.04.2019 17:25 24,6 C 39 % 999,8 hPa 0,0 l/m 4,0 km/h (1 Bft) W 264 9,7 C 24,6 C 9,7 km/h (2 Bft)
24.04.2019 17:20 25,0 C 37 % 1000,0 hPa 0,0 l/m 5,7 km/h (2 Bft) W 259 9,3 C 25,0 C 12,9 km/h (3 Bft)
24.04.2019 17:15 25,4 C 38 % 999,9 hPa 0,0 l/m 5,7 km/h (2 Bft) W 279 10,0 C 25,4 C 14,5 km/h (3 Bft)
24.04.2019 17:10 25,4 C 38 % 999,8 hPa 0,0 l/m 4,7 km/h (1 Bft) SW 227 10,0 C 25,4 C 12,9 km/h (3 Bft)
24.04.2019 17:05 25,4 C 36 % 999,9 hPa 0,0 l/m 2,9 km/h (1 Bft) W 261 9,2 C 25,4 C 6,4 km/h (2 Bft)
24.04.2019 17:00 24,9 C 36 % 1000,0 hPa 0,0 l/m 5,1 km/h (1 Bft) O-SO 111 8,8 C 24,9 C 11,3 km/h (2 Bft)
24.04.2019 16:55 25,0 C 36 % 1000,0 hPa 0,0 l/m 6,8 km/h (2 Bft) W-SW 254 8,9 C 24,9 C 12,9 km/h (3 Bft)
24.04.2019 16:50 24,9 C 36 % 1000,0 hPa 0,0 l/m 8,5 km/h (2 Bft) SO 143 8,8 C 24,4 C 19,3 km/h (3 Bft)
24.04.2019 16:45 24,9 C 36 % 1000,1 hPa 0,0 l/m 8,4 km/h (2 Bft) S-SW 194 8,8 C 24,4 C 14,5 km/h (3 Bft)
24.04.2019 16:40 24,8 C 37 % 1000,2 hPa 0,0 l/m 6,4 km/h (2 Bft) S-SW 195 9,1 C 24,8 C 14,5 km/h (3 Bft)
24.04.2019 16:35 24,6 C 38 % 1000,3 hPa 0,0 l/m 5,4 km/h (2 Bft) SW 219 9,3 C 24,6 C 14,5 km/h (3 Bft)
24.04.2019 16:30 24,8 C 37 % 1000,3 hPa 0,0 l/m 8,9 km/h (2 Bft) W-SW 242 9,1 C 24,2 C 19,3 km/h (3 Bft)
24.04.2019 16:25 25,4 C 35 % 1000,4 hPa 0,0 l/m 4,6 km/h (1 Bft) S-SW 213 8,8 C 25,4 C 11,3 km/h (2 Bft)
24.04.2019 16:20 25,7 C 34 % 1000,4 hPa 0,0 l/m 5,9 km/h (2 Bft) SW 219 8,6 C 25,7 C 14,5 km/h (3 Bft)
24.04.2019 16:15 25,9 C 34 % 1000,5 hPa 0,0 l/m 5,7 km/h (2 Bft) SW 214 8,8 C 25,9 C 14,5 km/h (3 Bft)
24.04.2019 16:10 25,6 C 34 % 1000,4 hPa 0,0 l/m 4,8 km/h (1 Bft) S 173 8,6 C 25,6 C 11,3 km/h (2 Bft)
24.04.2019 16:05 25,6 C 35 % 1000,4 hPa 0,0 l/m 6,2 km/h (2 Bft) S 190 9,0 C 25,6 C 12,9 km/h (3 Bft)
24.04.2019 16:00 25,7 C 34 % 1000,4 hPa 0,0 l/m 7,6 km/h (2 Bft) S-SO 148 8,6 C 25,4 C 30,6 km/h (5 Bft)
24.04.2019 15:55 25,6 C 35 % 1000,4 hPa 0,0 l/m 3,7 km/h (1 Bft) SW 225 9,0 C 25,6 C 11,3 km/h (2 Bft)
24.04.2019 15:50 25,4 C 34 % 1000,4 hPa 0,0 l/m 5,2 km/h (1 Bft) SW 234 8,4 C 25,4 C 9,7 km/h (2 Bft)
24.04.2019 15:45 25,3 C 34 % 1000,6 hPa 0,0 l/m 6,7 km/h (2 Bft) S-SW 198 8,3 C 25,2 C 12,9 km/h (3 Bft)
24.04.2019 15:40 25,3 C 34 % 1000,5 hPa 0,0 l/m 8,5 km/h (2 Bft) SW 220 8,3 C 24,8 C 16,1 km/h (3 Bft)
24.04.2019 15:35 25,6 C 35 % 1000,6 hPa 0,0 l/m 6,4 km/h (2 Bft) S-SW 199 9,0 C 25,6 C 20,9 km/h (4 Bft)
24.04.2019 15:30 25,3 C 34 % 1000,6 hPa 0,0 l/m 3,4 km/h (1 Bft) S-SW 205 8,3 C 25,3 C 6,4 km/h (2 Bft)
24.04.2019 15:25 25,3 C 34 % 1000,6 hPa 0,0 l/m 6,8 km/h (2 Bft) SW 225 8,3 C 25,2 C 17,7 km/h (3 Bft)
24.04.2019 15:20 25,5 C 34 % 1000,5 hPa 0,0 l/m 6,7 km/h (2 Bft) S 181 8,5 C 25,4 C 17,7 km/h (3 Bft)
24.04.2019 15:15 25,6 C 34 % 1000,5 hPa 0,0 l/m 5,7 km/h (2 Bft) W-SW 250 8,6 C 25,6 C 14,5 km/h (3 Bft)
24.04.2019 15:10 25,5 C 34 % 1000,5 hPa 0,0 l/m 3,1 km/h (1 Bft) W-SW 257 8,5 C 25,5 C 11,3 km/h (2 Bft)
24.04.2019 15:05 25,3 C 35 % 1000,6 hPa 0,0 l/m 3,9 km/h (1 Bft) S 191 8,7 C 25,3 C 8,0 km/h (2 Bft)
24.04.2019 15:00 24,9 C 35 % 1000,7 hPa 0,0 l/m 4,7 km/h (1 Bft) S-SW 198 8,4 C 24,9 C 16,1 km/h (3 Bft)
24.04.2019 14:55 24,8 C 35 % 1000,8 hPa 0,0 l/m 5,0 km/h (1 Bft) W 261 8,3 C 24,8 C 11,3 km/h (2 Bft)
24.04.2019 14:50 25,0 C 36 % 1000,8 hPa 0,0 l/m 7,4 km/h (2 Bft) W-SW 242 8,9 C 24,7 C 19,3 km/h (3 Bft)
24.04.2019 14:45 25,1 C 35 % 1000,7 hPa 0,0 l/m 6,1 km/h (2 Bft) W 268 8,6 C 25,1 C 17,7 km/h (3 Bft)
24.04.2019 14:40 24,7 C 37 % 1000,8 hPa 0,0 l/m 5,3 km/h (1 Bft) S-SO 167 9,0 C 24,7 C 14,5 km/h (3 Bft)
24.04.2019 14:35 24,8 C 36 % 1000,8 hPa 0,0 l/m 7,1 km/h (2 Bft) S-SW 211 8,7 C 24,6 C 14,5 km/h (3 Bft)
24.04.2019 14:30 24,9 C 36 % 1001,1 hPa 0,0 l/m 6,5 km/h (2 Bft) SW 229 8,8 C 24,9 C 17,7 km/h (3 Bft)
24.04.2019 14:25 25,1 C 36 % 1001,0 hPa 0,0 l/m 6,4 km/h (2 Bft) SW 226 9,0 C 25,1 C 14,5 km/h (3 Bft)
24.04.2019 14:20 25,1 C 36 % 1001,2 hPa 0,0 l/m 7,1 km/h (2 Bft) S-SW 201 9,0 C 24,9 C 17,7 km/h (3 Bft)
24.04.2019 14:15 24,8 C 35 % 1001,0 hPa 0,0 l/m 3,9 km/h (1 Bft) O-NO 73 8,3 C 24,8 C 8,0 km/h (2 Bft)
24.04.2019 14:10 24,5 C 36 % 1001,3 hPa 0,0 l/m 5,8 km/h (2 Bft) SW 230 8,4 C 24,5 C 16,1 km/h (3 Bft)
24.04.2019 14:05 24,2 C 37 % 1001,2 hPa 0,0 l/m 7,3 km/h (2 Bft) W-SW 241 8,6 C 23,9 C 17,7 km/h (3 Bft)
24.04.2019 14:00 24,1 C 36 % 1001,3 hPa 0,0 l/m 9,8 km/h (2 Bft) W-SW 251 8,1 C 23,2 C 20,9 km/h (4 Bft)
24.04.2019 13:55 24,1 C 36 % 1001,1 hPa 0,0 l/m 9,8 km/h (2 Bft) S 178 8,1 C 23,2 C 20,9 km/h (4 Bft)
24.04.2019 13:50 24,1 C 36 % 1001,2 hPa 0,0 l/m 8,8 km/h (2 Bft) W-SW 239 8,1 C 23,5 C 24,1 km/h (4 Bft)
24.04.2019 13:45 23,9 C 36 % 1001,3 hPa 0,0 l/m 10,1 km/h (2 Bft) SW 217 7,9 C 22,9 C 19,3 km/h (3 Bft)
24.04.2019 13:40 24,1 C 36 % 1001,4 hPa 0,0 l/m 9,0 km/h (2 Bft) W-SW 254 8,1 C 23,4 C 20,9 km/h (4 Bft)
24.04.2019 13:35 24,0 C 37 % 1001,3 hPa 0,0 l/m 10,4 km/h (2 Bft) SW 222 8,4 C 23,0 C 22,5 km/h (4 Bft)
24.04.2019 13:30 23,9 C 37 % 1001,3 hPa 0,0 l/m 8,0 km/h (2 Bft) SW 227 8,3 C 23,4 C 17,7 km/h (3 Bft)
24.04.2019 13:25 23,8 C 37 % 1001,4 hPa 0,0 l/m 11,5 km/h (2 Bft) N-NW 327 8,2 C 22,5 C 22,5 km/h (4 Bft)
24.04.2019 13:20 23,7 C 37 % 1001,5 hPa 0,0 l/m 11,3 km/h (2 Bft) SW 222 8,1 C 22,4 C 27,4 km/h (5 Bft)
24.04.2019 13:15 23,8 C 37 % 1001,5 hPa 0,0 l/m 11,1 km/h (2 Bft) SW 227 8,2 C 22,6 C 19,3 km/h (3 Bft)
24.04.2019 13:10 24,0 C 36 % 1001,6 hPa 0,0 l/m 8,9 km/h (2 Bft) S-SW 206 8,0 C 23,3 C 19,3 km/h (3 Bft)
24.04.2019 13:05 23,8 C 36 % 1001,5 hPa 0,0 l/m 9,0 km/h (2 Bft) NO 40 7,8 C 23,1 C 19,3 km/h (3 Bft)
24.04.2019 13:00 23,8 C 35 % 1001,7 hPa 0,0 l/m 12,0 km/h (2 Bft) S 191 7,4 C 22,4 C 24,1 km/h (4 Bft)
24.04.2019 12:55 23,8 C 36 % 1001,8 hPa 0,0 l/m 11,2 km/h (2 Bft) S-SO 166 7,8 C 22,6 C 25,7 km/h (4 Bft)
24.04.2019 12:50 23,6 C 38 % 1001,7 hPa 0,0 l/m 7,8 km/h (2 Bft) S-SW 209 8,4 C 23,2 C 16,1 km/h (3 Bft)
24.04.2019 12:45 23,6 C 38 % 1001,7 hPa 0,0 l/m 7,3 km/h (2 Bft) W-SW 238 8,4 C 23,3 C 17,7 km/h (3 Bft)
24.04.2019 12:40 23,4 C 38 % 1001,7 hPa 0,0 l/m 8,2 km/h (2 Bft) SW 232 8,3 C 22,9 C 20,9 km/h (4 Bft)
24.04.2019 12:35 23,3 C 39 % 1001,7 hPa 0,0 l/m 9,1 km/h (2 Bft) S-SW 202 8,6 C 22,5 C 19,3 km/h (3 Bft)
24.04.2019 12:30 23,3 C 37 % 1001,7 hPa 0,0 l/m 10,9 km/h (2 Bft) SW 221 7,8 C 22,1 C 25,7 km/h (4 Bft)
24.04.2019 12:25 23,2 C 38 % 1001,7 hPa 0,0 l/m 11,6 km/h (2 Bft) S-SW 211 8,1 C 21,8 C 24,1 km/h (4 Bft)
24.04.2019 12:20 23,4 C 37 % 1001,7 hPa 0,0 l/m 11,0 km/h (2 Bft) S-SW 200 7,9 C 22,2 C 25,7 km/h (4 Bft)
24.04.2019 12:15 23,3 C 39 % 1001,7 hPa 0,0 l/m 9,2 km/h (2 Bft) SW 231 8,6 C 22,5 C 19,3 km/h (3 Bft)
24.04.2019 12:10 23,1 C 39 % 1001,7 hPa 0,0 l/m 10,7 km/h (2 Bft) SW 221 8,4 C 21,9 C 25,7 km/h (4 Bft)
24.04.2019 12:05 23,1 C 39 % 1001,7 hPa 0,0 l/m 9,8 km/h (2 Bft) SW 234 8,4 C 22,1 C 17,7 km/h (3 Bft)
24.04.2019 12:00 22,9 C 39 % 1001,7 hPa 0,0 l/m 12,8 km/h (3 Bft) S-SW 196 8,2 C 21,2 C 22,5 km/h (4 Bft)
24.04.2019 11:55 22,6 C 39 % 1001,7 hPa 0,0 l/m 14,2 km/h (3 Bft) S-SW 207 7,9 C 20,6 C 35,4 km/h (5 Bft)
24.04.2019 11:50 22,5 C 39 % 1001,7 hPa 0,0 l/m 13,6 km/h (3 Bft) W-SW 240 7,8 C 20,6 C 27,4 km/h (5 Bft)
24.04.2019 11:45 22,7 C 38 % 1001,8 hPa 0,0 l/m 12,4 km/h (2 Bft) SW 215 7,6 C 21,0 C 35,4 km/h (5 Bft)
24.04.2019 11:40 22,8 C 39 % 1001,8 hPa 0,0 l/m 12,8 km/h (3 Bft) SW 221 8,1 C 21,1 C 29,0 km/h (5 Bft)
24.04.2019 11:35 22,8 C 39 % 1001,7 hPa 0,0 l/m 11,6 km/h (2 Bft) S 184 8,1 C 21,3 C 24,1 km/h (4 Bft)
24.04.2019 11:30 22,8 C 40 % 1001,8 hPa 0,0 l/m 8,9 km/h (2 Bft) S-SW 193 8,5 C 22,0 C 17,7 km/h (3 Bft)
24.04.2019 11:25 22,7 C 41 % 1001,8 hPa 0,0 l/m 7,5 km/h (2 Bft) S-SW 202 8,8 C 22,3 C 20,9 km/h (4 Bft)
24.04.2019 11:20 22,6 C 41 % 1001,7 hPa 0,0 l/m 8,3 km/h (2 Bft) SW 236 8,7 C 22,0 C 19,3 km/h (3 Bft)
24.04.2019 11:15 22,5 C 41 % 1001,6 hPa 0,0 l/m 7,4 km/h (2 Bft) S-SW 211 8,6 C 22,2 C 19,3 km/h (3 Bft)
24.04.2019 11:10 22,2 C 41 % 1001,6 hPa 0,0 l/m 8,4 km/h (2 Bft) S-SW 204 8,3 C 21,5 C 17,7 km/h (3 Bft)
24.04.2019 11:05 21,9 C 41 % 1001,6 hPa 0,0 l/m 11,6 km/h (2 Bft) S-SW 200 8,0 C 20,3 C 27,4 km/h (5 Bft)
24.04.2019 11:00 21,8 C 44 % 1001,7 hPa 0,0 l/m 10,9 km/h (2 Bft) W-SW 237 9,0 C 20,4 C 20,9 km/h (4 Bft)
24.04.2019 10:55 21,8 C 44 % 1001,7 hPa 0,0 l/m 7,2 km/h (2 Bft) S-SW 198 9,0 C 21,5 C 19,3 km/h (3 Bft)
24.04.2019 10:50 21,4 C 45 % 1001,5 hPa 0,0 l/m 10,0 km/h (2 Bft) W-SW 251 9,0 C 20,2 C 20,9 km/h (4 Bft)
24.04.2019 10:45 21,3 C 44 % 1001,6 hPa 0,0 l/m 13,2 km/h (3 Bft) W-SW 246 8,5 C 19,2 C 30,6 km/h (5 Bft)
24.04.2019 10:40 21,2 C 44 % 1001,7 hPa 0,0 l/m 12,4 km/h (2 Bft) W 263 8,5 C 19,3 C 27,4 km/h (5 Bft)
24.04.2019 10:35 21,1 C 46 % 1001,6 hPa 0,0 l/m 11,4 km/h (2 Bft) SW 233 9,0 C 19,5 C 27,4 km/h (5 Bft)
24.04.2019 10:30 21,0 C 48 % 1001,8 hPa 0,0 l/m 9,9 km/h (2 Bft) SW 217 9,6 C 19,8 C 22,5 km/h (4 Bft)
24.04.2019 10:25 20,8 C 50 % 1001,8 hPa 0,0 l/m 10,3 km/h (2 Bft) SW 230 10,0 C 19,4 C 20,9 km/h (4 Bft)
24.04.2019 10:20 20,6 C 52 % 1001,7 hPa 0,0 l/m 7,5 km/h (2 Bft) S-SW 200 10,4 C 20,2 C 16,1 km/h (3 Bft)
24.04.2019 10:15 20,4 C 52 % 1001,6 hPa 0,0 l/m 8,9 km/h (2 Bft) W-SW 238 10,2 C 19,4 C 20,9 km/h (4 Bft)
24.04.2019 10:10 20,2 C 52 % 1001,5 hPa 0,0 l/m 9,6 km/h (2 Bft) S-SW 213 10,0 C 19,0 C 29,0 km/h (5 Bft)
24.04.2019 10:05 19,9 C 54 % 1001,4 hPa 0,0 l/m 9,6 km/h (2 Bft) S 179 10,3 C 18,7 C 19,3 km/h (3 Bft)
24.04.2019 10:00 19,7 C 53 % 1001,4 hPa 0,0 l/m 10,6 km/h (2 Bft) S-SO 167 9,8 C 18,1 C 20,9 km/h (4 Bft)
24.04.2019 09:55 19,4 C 55 % 1001,3 hPa 0,0 l/m 9,1 km/h (2 Bft) SW 226 10,1 C 18,3 C 17,7 km/h (3 Bft)
24.04.2019 09:50 19,0 C 56 % 1001,3 hPa 0,0 l/m 11,6 km/h (2 Bft) SW 225 10,0 C 17,0 C 22,5 km/h (4 Bft)
24.04.2019 09:45 18,6 C 57 % 1001,3 hPa 0,0 l/m 9,6 km/h (2 Bft) S-SW 197 9,9 C 17,2 C 22,5 km/h (4 Bft)
24.04.2019 09:40 18,1 C 58 % 1001,4 hPa 0,0 l/m 8,7 km/h (2 Bft) W-SW 257 9,7 C 17,1 C 20,9 km/h (4 Bft)
24.04.2019 09:35 17,9 C 58 % 1001,3 hPa 0,0 l/m 8,0 km/h (2 Bft) SW 222 9,5 C 17,1 C 16,1 km/h (3 Bft)
24.04.2019 09:30 17,9 C 57 % 1001,2 hPa 0,0 l/m 6,5 km/h (2 Bft) S 188 9,3 C 17,9 C 24,1 km/h (4 Bft)
24.04.2019 09:25 17,7 C 58 % 1001,0 hPa 0,0 l/m 4,3 km/h (1 Bft) S-SO 148 9,3 C 17,7 C 14,5 km/h (3 Bft)
24.04.2019 09:20 17,2 C 61 % 1000,9 hPa 0,0 l/m 3,1 km/h (1 Bft) SW 219 9,6 C 17,2 C 14,5 km/h (3 Bft)
24.04.2019 09:15 16,6 C 63 % 1000,8 hPa 0,0 l/m 2,1 km/h (1 Bft) S-SW 209 9,5 C 16,6 C 6,4 km/h (2 Bft)
24.04.2019 09:10 16,3 C 65 % 1000,7 hPa 0,0 l/m 1,6 km/h (1 Bft) O-SO 107 9,7 C 16,3 C 6,4 km/h (2 Bft)
24.04.2019 09:05 16,1 C 66 % 1000,5 hPa 0,0 l/m 0,6 km/h (0 Bft) O 83 9,7 C 16,1 C 3,2 km/h (1 Bft)
24.04.2019 09:00 15,8 C 66 % 1000,6 hPa 0,0 l/m 0,0 km/h (0 Bft) O 83 9,5 C 15,8 C 1,6 km/h (1 Bft)
24.04.2019 08:55 15,6 C 67 % 1000,6 hPa 0,0 l/m 0,3 km/h (0 Bft) O 83 9,5 C 15,6 C 1,6 km/h (1 Bft)
24.04.2019 08:50 15,5 C 67 % 1000,7 hPa 0,0 l/m 0,8 km/h (0 Bft) O 83 9,4 C 15,5 C 3,2 km/h (1 Bft)
24.04.2019 08:45 15,4 C 68 % 1000,9 hPa 0,0 l/m 1,1 km/h (1 Bft) O 79 9,5 C 15,4 C 4,8 km/h (1 Bft)
24.04.2019 08:40 15,3 C 68 % 1000,8 hPa 0,0 l/m 0,1 km/h (0 Bft) O 79 9,4 C 15,3 C 1,6 km/h (1 Bft)
24.04.2019 08:35 15,3 C 67 % 1000,7 hPa 0,0 l/m 0,7 km/h (0 Bft) O 79 9,2 C 15,3 C 3,2 km/h (1 Bft)
24.04.2019 08:30 15,4 C 65 % 1000,8 hPa 0,0 l/m 0,6 km/h (0 Bft) O 79 8,9 C 15,4 C 3,2 km/h (1 Bft)
24.04.2019 08:25 15,4 C 65 % 1000,7 hPa 0,0 l/m 0,9 km/h (0 Bft) O 79 8,9 C 15,4 C 3,2 km/h (1 Bft)
24.04.2019 08:20 15,6 C 64 % 1000,7 hPa 0,0 l/m 1,7 km/h (1 Bft) O 79 8,8 C 15,6 C 4,8 km/h (1 Bft)
24.04.2019 08:15 15,6 C 64 % 1000,6 hPa 0,0 l/m 1,2 km/h (1 Bft) O-NO 78 8,8 C 15,6 C 3,2 km/h (1 Bft)
24.04.2019 08:10 15,5 C 64 % 1000,6 hPa 0,0 l/m 2,3 km/h (1 Bft) O-NO 78 8,7 C 15,5 C 4,8 km/h (1 Bft)
24.04.2019 08:05 15,4 C 65 % 1000,5 hPa 0,0 l/m 0,4 km/h (0 Bft) O-NO 78 8,9 C 15,4 C 4,8 km/h (1 Bft)
24.04.2019 08:00 15,3 C 64 % 1000,5 hPa 0,0 l/m 0,0 km/h (0 Bft) O-NO 78 8,5 C 15,3 C 1,6 km/h (1 Bft)
24.04.2019 07:55 15,3 C 64 % 1000,5 hPa 0,0 l/m 0,3 km/h (0 Bft) O-NO 78 8,5 C 15,3 C 3,2 km/h (1 Bft)
24.04.2019 07:50 15,2 C 64 % 1000,5 hPa 0,0 l/m 0,1 km/h (0 Bft) O-NO 78 8,4 C 15,2 C 1,6 km/h (1 Bft)
24.04.2019 07:45 15,2 C 64 % 1000,4 hPa 0,0 l/m 0,8 km/h (0 Bft) O-NO 78 8,4 C 15,2 C 4,8 km/h (1 Bft)
24.04.2019 07:40 15,1 C 64 % 1000,3 hPa 0,0 l/m 0,9 km/h (0 Bft) O 83 8,3 C 15,1 C 4,8 km/h (1 Bft)
24.04.2019 07:35 14,9 C 64 % 1000,3 hPa 0,0 l/m 1,2 km/h (1 Bft) O-SO 117 8,2 C 14,9 C 4,8 km/h (1 Bft)
24.04.2019 07:30 14,8 C 65 % 1000,2 hPa 0,0 l/m 0,9 km/h (0 Bft) O-SO 103 8,3 C 14,8 C 6,4 km/h (2 Bft)
24.04.2019 07:25 14,7 C 65 % 1000,2 hPa 0,0 l/m 0,9 km/h (0 Bft) O-SO 113 8,2 C 14,7 C 4,8 km/h (1 Bft)
24.04.2019 07:20 14,6 C 64 % 1000,2 hPa 0,0 l/m 0,6 km/h (0 Bft) O-SO 107 7,9 C 14,6 C 3,2 km/h (1 Bft)
24.04.2019 07:15 14,4 C 64 % 1000,0 hPa 0,0 l/m 1,1 km/h (1 Bft) O-SO 108 7,7 C 14,4 C 3,2 km/h (1 Bft)
24.04.2019 07:10 14,4 C 65 % 1000,0 hPa 0,0 l/m 0,9 km/h (0 Bft) O-SO 107 7,9 C 14,4 C 3,2 km/h (1 Bft)
24.04.2019 07:05 14,3 C 64 % 1000,0 hPa 0,0 l/m 0,7 km/h (0 Bft) O-SO 108 7,6 C 14,3 C 3,2 km/h (1 Bft)
24.04.2019 07:00 14,3 C 64 % 999,8 hPa 0,0 l/m 1,9 km/h (1 Bft) O-SO 107 7,6 C 14,3 C 3,2 km/h (1 Bft)
24.04.2019 06:55 14,3 C 64 % 999,8 hPa 0,0 l/m 1,8 km/h (1 Bft) O-SO 107 7,6 C 14,3 C 4,8 km/h (1 Bft)
24.04.2019 06:50 14,3 C 64 % 999,8 hPa 0,0 l/m 2,7 km/h (1 Bft) O-SO 105 7,6 C 14,3 C 4,8 km/h (1 Bft)
24.04.2019 06:45 14,2 C 64 % 999,8 hPa 0,0 l/m 2,2 km/h (1 Bft) O 88 7,5 C 14,2 C 9,7 km/h (2 Bft)
24.04.2019 06:40 14,2 C 64 % 999,6 hPa 0,0 l/m 1,7 km/h (1 Bft) O-SO 106 7,5 C 14,2 C 4,8 km/h (1 Bft)
24.04.2019 06:35 14,2 C 65 % 999,6 hPa 0,0 l/m 1,7 km/h (1 Bft) O-SO 103 7,7 C 14,2 C 4,8 km/h (1 Bft)
24.04.2019 06:30 14,1 C 65 % 999,6 hPa 0,0 l/m 2,1 km/h (1 Bft) O 92 7,6 C 14,1 C 6,4 km/h (2 Bft)
24.04.2019 06:25 14,0 C 65 % 999,4 hPa 0,0 l/m 2,5 km/h (1 Bft) O-SO 110 7,5 C 14,0 C 6,4 km/h (2 Bft)
24.04.2019 06:20 13,9 C 65 % 999,5 hPa 0,0 l/m 0,8 km/h (0 Bft) O 93 7,4 C 13,9 C 3,2 km/h (1 Bft)
24.04.2019 06:15 13,9 C 65 % 999,4 hPa 0,0 l/m 0,6 km/h (0 Bft) O 92 7,4 C 13,9 C 4,8 km/h (1 Bft)
24.04.2019 06:10 14,1 C 65 % 999,4 hPa 0,0 l/m 0,0 km/h (0 Bft) O 92 7,6 C 14,1 C 1,6 km/h (1 Bft)
24.04.2019 06:05 14,2 C 65 % 999,3 hPa 0,0 l/m 0,3 km/h (0 Bft) O 92 7,7 C 14,2 C 3,2 km/h (1 Bft)
24.04.2019 06:00 14,4 C 64 % 999,2 hPa 0,0 l/m 0,6 km/h (0 Bft) O 92 7,7 C 14,4 C 3,2 km/h (1 Bft)
24.04.2019 05:55 14,4 C 63 % 999,2 hPa 0,0 l/m 1,6 km/h (1 Bft) O 92 7,4 C 14,4 C 4,8 km/h (1 Bft)
24.04.2019 05:50 14,6 C 63 % 999,2 hPa 0,0 l/m 1,4 km/h (1 Bft) O-NO 65 7,6 C 14,6 C 6,4 km/h (2 Bft)
24.04.2019 05:45 14,6 C 62 % 999,1 hPa 0,0 l/m 1,9 km/h (1 Bft) SO 134 7,4 C 14,6 C 6,4 km/h (2 Bft)
24.04.2019 05:40 14,6 C 62 % 999,2 hPa 0,0 l/m 2,6 km/h (1 Bft) O-NO 59 7,4 C 14,6 C 8,0 km/h (2 Bft)
24.04.2019 05:35 14,7 C 62 % 999,2 hPa 0,0 l/m 1,3 km/h (1 Bft) O-NO 77 7,5 C 14,7 C 6,4 km/h (2 Bft)
24.04.2019 05:30 14,7 C 62 % 999,1 hPa 0,0 l/m 1,9 km/h (1 Bft) O-NO 76 7,5 C 14,7 C 6,4 km/h (2 Bft)
24.04.2019 05:25 14,6 C 62 % 999,2 hPa 0,0 l/m 3,0 km/h (1 Bft) O 84 7,4 C 14,6 C 6,4 km/h (2 Bft)
24.04.2019 05:20 14,5 C 62 % 999,2 hPa 0,0 l/m 2,4 km/h (1 Bft) O-NO 70 7,3 C 14,5 C 6,4 km/h (2 Bft)
24.04.2019 05:15 14,4 C 63 % 999,2 hPa 0,0 l/m 1,7 km/h (1 Bft) O-NO 61 7,4 C 14,4 C 6,4 km/h (2 Bft)
24.04.2019 05:10 14,2 C 63 % 999,1 hPa 0,0 l/m 0,9 km/h (0 Bft) O-NO 75 7,3 C 14,2 C 3,2 km/h (1 Bft)
24.04.2019 05:05 14,0 C 64 % 999,2 hPa 0,0 l/m 0,3 km/h (0 Bft) O 82 7,3 C 14,0 C 3,2 km/h (1 Bft)
24.04.2019 05:00 13,8 C 65 % 999,1 hPa 0,0 l/m 0,9 km/h (0 Bft) O-NO 60 7,3 C 13,8 C 4,8 km/h (1 Bft)
24.04.2019 04:55 13,7 C 66 % 999,1 hPa 0,0 l/m 0,3 km/h (0 Bft) O-SO 113 7,5 C 13,7 C 1,6 km/h (1 Bft)
24.04.2019 04:50 13,7 C 66 % 999,2 hPa 0,0 l/m 0,9 km/h (0 Bft) O-SO 114 7,5 C 13,7 C 3,2 km/h (1 Bft)
24.04.2019 04:45 13,7 C 66 % 999,2 hPa 0,0 l/m 0,9 km/h (0 Bft) O-SO 114 7,5 C 13,7 C 3,2 km/h (1 Bft)
24.04.2019 04:40 13,8 C 65 % 999,1 hPa 0,0 l/m 2,0 km/h (1 Bft) O-SO 115 7,3 C 13,8 C 4,8 km/h (1 Bft)
24.04.2019 04:35 13,8 C 65 % 999,2 hPa 0,0 l/m 1,5 km/h (1 Bft) O-SO 110 7,3 C 13,8 C 4,8 km/h (1 Bft)
24.04.2019 04:30 13,8 C 65 % 999,1 hPa 0,0 l/m 2,1 km/h (1 Bft) O-SO 106 7,3 C 13,8 C 4,8 km/h (1 Bft)
24.04.2019 04:25 13,8 C 65 % 999,1 hPa 0,0 l/m 2,0 km/h (1 Bft) O-SO 106 7,3 C 13,8 C 4,8 km/h (1 Bft)
24.04.2019 04:20 13,8 C 64 % 999,0 hPa 0,0 l/m 1,4 km/h (1 Bft) O-SO 107 7,1 C 13,8 C 4,8 km/h (1 Bft)
24.04.2019 04:15 13,9 C 64 % 999,0 hPa 0,0 l/m 1,1 km/h (1 Bft) O-SO 114 7,2 C 13,9 C 3,2 km/h (1 Bft)
24.04.2019 04:10 14,0 C 64 % 999,0 hPa 0,0 l/m 1,2 km/h (1 Bft) O-SO 115 7,3 C 14,0 C 4,8 km/h (1 Bft)
24.04.2019 04:05 14,0 C 64 % 999,0 hPa 0,0 l/m 2,5 km/h (1 Bft) O 91 7,3 C 14,0 C 6,4 km/h (2 Bft)
24.04.2019 04:00 14,0 C 64 % 998,8 hPa 0,0 l/m 2,2 km/h (1 Bft) O-SO 106 7,3 C 14,0 C 4,8 km/h (1 Bft)
24.04.2019 03:55 14,1 C 64 % 998,9 hPa 0,0 l/m 1,2 km/h (1 Bft) O 101 7,4 C 14,1 C 6,4 km/h (2 Bft)
24.04.2019 03:50 14,2 C 64 % 999,0 hPa 0,0 l/m 1,5 km/h (1 Bft) O-SO 110 7,5 C 14,2 C 4,8 km/h (1 Bft)
24.04.2019 03:45 14,3 C 64 % 998,9 hPa 0,0 l/m 1,8 km/h (1 Bft) O-SO 105 7,6 C 14,3 C 4,8 km/h (1 Bft)
24.04.2019 03:40 14,3 C 64 % 998,9 hPa 0,0 l/m 2,9 km/h (1 Bft) O-SO 105 7,6 C 14,3 C 4,8 km/h (1 Bft)
24.04.2019 03:35 14,2 C 64 % 998,8 hPa 0,0 l/m 1,9 km/h (1 Bft) O-SO 107 7,5 C 14,2 C 4,8 km/h (1 Bft)
24.04.2019 03:30 13,6 C 65 % 998,9 hPa 0,0 l/m 2,4 km/h (1 Bft) S-SO 163 7,1 C 13,6 C 6,4 km/h (2 Bft)
24.04.2019 03:25 12,8 C 69 % 998,9 hPa 0,0 l/m 1,0 km/h (0 Bft) S-SW 210 7,3 C 12,8 C 6,4 km/h (2 Bft)
24.04.2019 03:20 12,7 C 71 % 999,0 hPa 0,0 l/m 1,0 km/h (0 Bft) S-SW 210 7,6 C 12,7 C 4,8 km/h (1 Bft)
24.04.2019 03:15 12,7 C 71 % 998,8 hPa 0,0 l/m 0,0 km/h (0 Bft) O-SO 120 7,6 C 12,7 C 1,6 km/h (1 Bft)
24.04.2019 03:10 12,7 C 71 % 998,7 hPa 0,0 l/m 0,3 km/h (0 Bft) O-SO 120 7,6 C 12,7 C 1,6 km/h (1 Bft)
24.04.2019 03:05 12,6 C 72 % 998,7 hPa 0,0 l/m 0,4 km/h (0 Bft) O-SO 120 7,7 C 12,6 C 3,2 km/h (1 Bft)
24.04.2019 03:00 12,6 C 73 % 998,8 hPa 0,0 l/m 0,0 km/h (0 Bft) O-SO 120 7,9 C 12,6 C 0,0 km/h (0 Bft)
_ Min-Zeit 02:35 15:10 03:05 - 03:00 - - 02:40 20:55 03:00
Minimum _ 8,2 C 34 % 998,7 hPa - 0,0 km/h (0 Bft) - - 6,5 C 5,9 C 0,0 km/h (0 Bft)
_ Max-Zeit 16:15 23:05 21:35 21:00 18:45 - - 18:25 16:15 20:05
Maximum _ 25,9 C 90 % 1007,1 hPa 0,6 l/m 19,0 km/h
SW (3 Bft)
- - 11,5 C 25,9 C 43,5 km/h
W-SW (6 Bft)
Durchschnitt _ 16,2 C 63 % 1001,9 hPa #5,4 l/m 4,9 km/h (1 Bft) O-SO - 8,2 C 15,6 C 12,1 km/h (2 Bft)
www.klaudt.eu